Location: C�an Torras
(41.5052°N, 1.9280°E)
Time: 18:01:13
(UTC+00:00)

Cosmos 1818 - Pass Details

Date: 20 January 2021
Orbit: 773 x 800 km, 65.0° (Epoch: 03 March)

Event Time Altitude Azimuth Distance (km) Brightness Sun altitude
Rises 18:23:15 0° 212° (SSW) 3,258 7.5 -16.7°
Reaches altitude 10° 18:25:38 10° 213° (SSW) 2,338 6.6 -17.1°
Maximum altitude 18:31:02 85° 301° (WNW) 799 3.6 -18.1°
Enters shadow 18:34:52 20° 31° (NNE) 1,759 5.0 -18.8°
